When you browse on this site, cookies collect data to enhance your experience and personalize the content and advertising you see.
Visit our Privacy Policy to learn more. By continuing to use the site, you agree to this use of cookies and data.
  • In Romania
  • List of Countries
  • For 7 days
  • Water Temperature
  • Satellite Maps
  • Weather Map
  • Weather Widgets
  • user-avatar
    Login

    Hourly Weather Medovo

    Today, 19 February, Tuesday

    Time Temperature Precipitation Wind Pressure Humidity
    00:00 -10°C° 0 mm 3 mps 746 mmHg 83%
    01:00 -11°C° 0 mm 4 mps 746 mmHg 79%
    02:00 -10°C° 0 mm 5 mps 745 mmHg 78%
    03:00 -10°C° 0 mm 5 mps 744 mmHg 77%
    04:00 -8°C° 0 mm 5 mps 743 mmHg 76%
    05:00 -9°C° 0 mm 6 mps 742 mmHg 76%
    06:00 -8°C° 0 mm 5 mps 741 mmHg 77%
    07:00 -8°C° 0 mm 5 mps 741 mmHg 78%
    08:00 -8°C° 0 mm 5 mps 740 mmHg 80%
    09:00 -7°C° 0 mm 5 mps 740 mmHg 80%
    10:00 -5°C° 0 mm 5 mps 739 mmHg 80%
    11:00 -4°C° 0 mm 6 mps 739 mmHg 81%
    12:00 -2°C° 0 mm 5 mps 739 mmHg 82%
    13:00 -2°C° 0 mm 5 mps 738 mmHg 84%
    14:00 -1°C° 0 mm 5 mps 738 mmHg 85%
    15:00 -1°C° 0 mm 5 mps 738 mmHg 87%
    16:00 -1°C° 0 mm 4 mps 738 mmHg 88%
    17:00 -2°C° 0 mm 4 mps 737 mmHg 89%
    18:00 -2°C° 0 mm 4 mps 737 mmHg 90%
    19:00 -2°C° 0 mm 4 mps 736 mmHg 91%
    20:00 -3°C° 0 mm 4 mps 736 mmHg 92%
    21:00 -3°C° 0 mm 4 mps 735 mmHg 91%
    22:00 -2°C° 0 mm 4 mps 734 mmHg 90%
    23:00 -2°C° 0 mm 4 mps 734 mmHg 90%

    Tomorrow, 20 February, Wednesday

    Time Temperature Precipitation Wind Pressure Humidity
    00:00 -2°C° 0.1 mm 4 mps 733 mmHg 90%
    01:00 -2°C° 0.1 mm 4 mps 732 mmHg 90%
    02:00 -2°C° 0.1 mm 4 mps 731 mmHg 90%
    03:00 -2°C° 0.1 mm 4 mps 731 mmHg 89%
    04:00 -2°C° 0.1 mm 5 mps 730 mmHg 89%
    05:00 -1°C° 0.1 mm 5 mps 729 mmHg 89%
    06:00 -1°C° 0.2 mm 5 mps 729 mmHg 90%
    07:00 -1°C° 0.2 mm 5 mps 729 mmHg 90%
    08:00 -1°C° 0.2 mm 5 mps 729 mmHg 91%
    09:00 -1°C° 0 mm 5 mps 729 mmHg 91%
    10:00 0°C° 0 mm 5 mps 729 mmHg 90%
    11:00 0°C° 0 mm 4 mps 729 mmHg 90%
    12:00 0°C° 0.1 mm 4 mps 729 mmHg 90%
    13:00 0°C° 0.1 mm 4 mps 729 mmHg 90%
    14:00 0°C° 0.1 mm 4 mps 729 mmHg 91%
    15:00 0°C° 0.1 mm 4 mps 729 mmHg 91%
    16:00 -1°C° 0.1 mm 4 mps 729 mmHg 92%
    17:00 -1°C° 0.1 mm 4 mps 728 mmHg 93%
    18:00 -1°C° 0.1 mm 4 mps 728 mmHg 93%
    19:00 -1°C° 0.1 mm 4 mps 728 mmHg 93%
    20:00 0°C° 0.1 mm 3 mps 728 mmHg 93%
    21:00 0°C° 0.2 mm 3 mps 728 mmHg 93%
    22:00 0°C° 0.2 mm 3 mps 728 mmHg 94%
    23:00 0°C° 0.2 mm 3 mps 727 mmHg 94%

    Day after tomorrow, 21 February, Thursday

    Time Temperature Precipitation Wind Pressure Humidity
    00:00 -1°C° 0.2 mm 3 mps 727 mmHg 95%
    01:00 -1°C° 0.2 mm 2 mps 727 mmHg 95%
    02:00 -1°C° 0.2 mm 2 mps 727 mmHg 96%
    03:00 -1°C° 0.3 mm 2 mps 728 mmHg 96%
    04:00 -1°C° 0.3 mm 2 mps 728 mmHg 97%
    05:00 -1°C° 0.3 mm 2 mps 728 mmHg 97%
    06:00 -2°C° 0.7 mm 2 mps 728 mmHg 96%
    07:00 -2°C° 0.7 mm 3 mps 729 mmHg 94%
    08:00 -3°C° 0.7 mm 4 mps 730 mmHg 93%
    09:00 -5°C° 0.3 mm 5 mps 731 mmHg 91%
    10:00 -5°C° 0.3 mm 6 mps 731 mmHg 89%
    11:00 -7°C° 0.3 mm 7 mps 732 mmHg 87%
    12:00 -8°C° 0.1 mm 7 mps 733 mmHg 85%
    13:00 -9°C° 0.1 mm 7 mps 734 mmHg 83%
    14:00 -11°C° 0.1 mm 7 mps 736 mmHg 81%
    15:00 -12°C° 0.1 mm 7 mps 737 mmHg 80%
    16:00 -12°C° 0.1 mm 7 mps 738 mmHg 80%
    17:00 -12°C° 0.1 mm 6 mps 739 mmHg 80%
    18:00 -12°C° 0.1 mm 6 mps 740 mmHg 78%
    19:00 -14°C° 0.1 mm 6 mps 741 mmHg 77%
    20:00 -14°C° 0.1 mm 6 mps 742 mmHg 76%
    21:00 -15°C° 0 mm 6 mps 742 mmHg 76%
    22:00 -15°C° 0 mm 6 mps 743 mmHg 75%
    23:00 -16°C° 0 mm 6 mps 744 mmHg 75%

    22 February, Friday

    Time Temperature Precipitation Wind Pressure Humidity
    00:00 -16°C° 0 mm 6 mps 744 mmHg 75%
    01:00 -16°C° 0 mm 6 mps 745 mmHg 76%
    02:00 -16°C° 0 mm 6 mps 745 mmHg 76%
    03:00 -17°C° 0 mm 6 mps 746 mmHg 76%
    04:00 -17°C° 0 mm 6 mps 746 mmHg 76%
    05:00 -17°C° 0 mm 6 mps 747 mmHg 76%
    06:00 -17°C° 0 mm 6 mps 747 mmHg 77%
    07:00 -17°C° 0 mm 6 mps 748 mmHg 77%
    08:00 -17°C° 0 mm 6 mps 748 mmHg 78%
    09:00 -16°C° 0 mm 6 mps 748 mmHg 75%
    10:00 -16°C° 0 mm 6 mps 748 mmHg 72%
    11:00 -15°C° 0 mm 7 mps 749 mmHg 69%
    12:00 -15°C° 0 mm 7 mps 749 mmHg 68%
    13:00 -15°C° 0 mm 7 mps 749 mmHg 66%
    14:00 -15°C° 0 mm 7 mps 749 mmHg 65%
    15:00 -15°C° 0 mm 7 mps 750 mmHg 68%
    16:00 -17°C° 0 mm 7 mps 750 mmHg 71%
    17:00 -16°C° 0 mm 6 mps 751 mmHg 73%
    18:00 -16°C° 0 mm 6 mps 752 mmHg 74%
    19:00 -16°C° 0 mm 6 mps 752 mmHg 75%
    20:00 -17°C° 0 mm 6 mps 753 mmHg 75%
    21:00 -17°C° 0 mm 6 mps 753 mmHg 77%
    22:00 -17°C° 0 mm 5 mps 753 mmHg 79%
    23:00 -17°C° 0 mm 5 mps 754 mmHg 81%

    23 February, Saturday

    Time Temperature Precipitation Wind Pressure Humidity
    00:00 -17°C° 0 mm 5 mps 754 mmHg 82%
    01:00 -17°C° 0 mm 5 mps 754 mmHg 83%
    02:00 -18°C° 0 mm 5 mps 755 mmHg 84%
    03:00 -17°C° 0 mm 4 mps 755 mmHg 86%
    04:00 -17°C° 0 mm 4 mps 755 mmHg 87%
    05:00 -18°C° 0 mm 4 mps 755 mmHg 88%
    06:00 -18°C° 0 mm 4 mps 755 mmHg 88%
    07:00 -17°C° 0 mm 3 mps 756 mmHg 88%
    08:00 -17°C° 0 mm 3 mps 756 mmHg 87%
    09:00 -16°C° 0 mm 3 mps 756 mmHg 84%
    10:00 -14°C° 0 mm 3 mps 756 mmHg 81%
    11:00 -13°C° 0 mm 3 mps 756 mmHg 78%
    12:00 -13°C° 0 mm 3 mps 756 mmHg 77%
    13:00 -10°C° 0 mm 2 mps 756 mmHg 77%
    14:00 -9°C° 0 mm 2 mps 756 mmHg 76%
    15:00 -10°C° 0 mm 2 mps 756 mmHg 80%
    16:00 -10°C° 0 mm 2 mps 756 mmHg 85%
    17:00 -10°C° 0 mm 1 mps 756 mmHg 89%
    18:00 -10°C° 0 mm 1 mps 756 mmHg 89%
    19:00 -12°C° 0 mm 2 mps 756 mmHg 89%
    20:00 -12°C° 0 mm 2 mps 756 mmHg 89%
    21:00 -12°C° 0 mm 2 mps 757 mmHg 88%
    22:00 -12°C° 0 mm 2 mps 757 mmHg 87%
    23:00 -10°C° 0 mm 2 mps 757 mmHg 86%

    24 February, Sunday

    Time Temperature Precipitation Wind Pressure Humidity
    00:00 -13°C° 0 mm 3 mps 756 mmHg 88%
    01:00 -13°C° 0 mm 3 mps 756 mmHg 91%
    02:00 -13°C° 0 mm 3 mps 756 mmHg 94%
    03:00 -12°C° 0 mm 2 mps 756 mmHg 95%
    04:00 -12°C° 0 mm 2 mps 756 mmHg 95%
    05:00 -12°C° 0 mm 2 mps 756 mmHg 96%
    06:00 -12°C° 0 mm 2 mps 756 mmHg 96%
    07:00 -10°C° 0 mm 2 mps 756 mmHg 95%
    08:00 -12°C° 0 mm 3 mps 756 mmHg 95%
    09:00 -10°C° 0 mm 3 mps 756 mmHg 94%
    10:00 -9°C° 0 mm 3 mps 756 mmHg 92%
    11:00 -8°C° 0 mm 3 mps 756 mmHg 90%
    12:00 -7°C° 0 mm 3 mps 755 mmHg 90%
    13:00 -7°C° 0 mm 3 mps 755 mmHg 90%
    14:00 -6°C° 0 mm 3 mps 755 mmHg 89%
    15:00 -6°C° 0 mm 3 mps 754 mmHg 90%
    16:00 -6°C° 0 mm 3 mps 754 mmHg 91%
    17:00 -5°C° 0 mm 3 mps 754 mmHg 92%
    18:00 -5°C° 0 mm 3 mps 753 mmHg 93%
    19:00 -5°C° 0 mm 3 mps 753 mmHg 93%
    20:00 -4°C° 0 mm 4 mps 752 mmHg 94%
    21:00 -4°C° 0.2 mm 4 mps 751 mmHg 94%
    22:00 -4°C° 0.2 mm 4 mps 751 mmHg 93%
    23:00 -4°C° 0.2 mm 4 mps 750 mmHg 93%
    Show more